Wetterdaten: Freitag, 27.02.2015
Datum Zeit Temp. A. Feuchte A. Luftdruck Regen Wind Richtung Richtung Sonnenschein ET UV Solar Taupunkt Windchill Windben Empfang
27.02.2015 00:00 -1,5 C 80 % 1015,1 hPa 0,0 l/m 0,0 km/h (0 Bft) S 188 0 min 0,000 mm 0,0 UV-I 0 W/m -4,5 C -1,5 C 0,0 km/h (0 Bft) 0,00 %
27.02.2015 00:15 -1,9 C 82 % 1015,0 hPa 0,0 l/m 0,0 km/h (0 Bft) S-SW 202 0 min 0,000 mm 0,0 UV-I 0 W/m -4,6 C -1,9 C 0,0 km/h (0 Bft) 0,00 %
27.02.2015 00:30 -1,9 C 82 % 1014,8 hPa 0,0 l/m 0,0 km/h (0 Bft) S-SW 199 0 min 0,000 mm 0,0 UV-I 0 W/m -4,6 C -1,9 C 0,0 km/h (0 Bft) 0,00 %
27.02.2015 00:45 -2,1 C 82 % 1014,6 hPa 0,0 l/m 0,0 km/h (0 Bft) SW 222 0 min 0,000 mm 0,0 UV-I 0 W/m -4,7 C -2,1 C 0,0 km/h (0 Bft) 0,00 %
27.02.2015 01:00 -2,2 C 83 % 1014,5 hPa 0,0 l/m 0,0 km/h (0 Bft) S-SW 213 0 min 0,000 mm 0,0 UV-I 0 W/m -4,7 C -2,2 C 0,0 km/h (0 Bft) 0,00 %
27.02.2015 01:15 -2,3 C 83 % 1014,3 hPa 0,0 l/m 0,0 km/h (0 Bft) S-SW 196 0 min 0,000 mm 0,0 UV-I 0 W/m -4,8 C -2,3 C 0,0 km/h (0 Bft) 0,00 %
27.02.2015 01:30 -2,6 C 79 % 1014,3 hPa 0,0 l/m 0,0 km/h (0 Bft) S-SW 203 0 min 0,000 mm 0,0 UV-I 0 W/m -5,7 C -2,6 C 0,0 km/h (0 Bft) 0,00 %
27.02.2015 01:45 -2,8 C 80 % 1014,1 hPa 0,0 l/m 0,0 km/h (0 Bft) S 191 0 min 0,000 mm 0,0 UV-I 0 W/m -5,8 C -2,8 C 0,0 km/h (0 Bft) 0,00 %
27.02.2015 02:00 -2,5 C 80 % 1013,7 hPa 0,0 l/m 0,0 km/h (0 Bft) S-SW 194 0 min 0,000 mm 0,0 UV-I 0 W/m -5,5 C -2,5 C 0,0 km/h (0 Bft) 0,00 %
27.02.2015 02:15 -2,7 C 80 % 1013,8 hPa 0,0 l/m 0,0 km/h (0 Bft) S-SW 200 0 min 0,000 mm 0,0 UV-I 0 W/m -5,7 C -2,7 C 0,0 km/h (0 Bft) 0,00 %
27.02.2015 02:30 -3,0 C 80 % 1013,7 hPa 0,0 l/m 0,0 km/h (0 Bft) S-SW 202 0 min 0,000 mm 0,0 UV-I 0 W/m -6,0 C -3,0 C 0,0 km/h (0 Bft) 0,00 %
27.02.2015 02:45 -3,1 C 80 % 1013,4 hPa 0,0 l/m 0,0 km/h (0 Bft) S-SW 196 0 min 0,000 mm 0,0 UV-I 0 W/m -6,0 C -3,1 C 0,0 km/h (0 Bft) 0,00 %
27.02.2015 03:00 -3,2 C 80 % 1013,3 hPa 0,0 l/m 0,0 km/h (0 Bft) W-SW 245 0 min 0,000 mm 0,0 UV-I 0 W/m -6,1 C -3,2 C 0,0 km/h (0 Bft) 0,00 %
27.02.2015 03:15 -3,3 C 81 % 1012,9 hPa 0,0 l/m 0,0 km/h (0 Bft) S-SW 196 0 min 0,000 mm 0,0 UV-I 0 W/m -6,1 C -3,3 C 0,0 km/h (0 Bft) 0,00 %
27.02.2015 03:30 -3,4 C 81 % 1012,9 hPa 0,0 l/m 0,0 km/h (0 Bft) S-SW 200 0 min 0,000 mm 0,0 UV-I 0 W/m -6,2 C -3,4 C 0,0 km/h (0 Bft) 0,00 %
27.02.2015 03:45 -3,4 C 81 % 1012,8 hPa 0,0 l/m 0,0 km/h (0 Bft) S-SW 208 0 min 0,000 mm 0,0 UV-I 0 W/m -6,2 C -3,4 C 0,0 km/h (0 Bft) 0,00 %
27.02.2015 04:00 -3,3 C 82 % 1012,7 hPa 0,0 l/m 0,0 km/h (0 Bft) S-SW 197 0 min 0,000 mm 0,0 UV-I 0 W/m -5,9 C -3,3 C 0,0 km/h (0 Bft) 0,00 %
27.02.2015 04:15 -3,5 C 81 % 1012,5 hPa 0,0 l/m 0,0 km/h (0 Bft) S 188 0 min 0,000 mm 0,0 UV-I 0 W/m -6,3 C -3,5 C 0,0 km/h (0 Bft) 0,00 %
27.02.2015 04:30 -3,5 C 82 % 1012,4 hPa 0,0 l/m 0,0 km/h (0 Bft) S-SW 209 0 min 0,000 mm 0,0 UV-I 0 W/m -6,1 C -3,5 C 0,0 km/h (0 Bft) 0,00 %
27.02.2015 04:45 -3,8 C 82 % 1012,2 hPa 0,0 l/m 0,0 km/h (0 Bft) S 175 0 min 0,000 mm 0,0 UV-I 0 W/m -6,4 C -3,8 C 0,0 km/h (0 Bft) 0,00 %
27.02.2015 05:00 -3,5 C 81 % 1012,0 hPa 0,0 l/m 0,0 km/h (0 Bft) S-SW 207 0 min 0,000 mm 0,0 UV-I 0 W/m -6,3 C -3,5 C 0,0 km/h (0 Bft) 0,00 %
27.02.2015 05:15 -3,0 C 82 % 1011,8 hPa 0,0 l/m 0,0 km/h (0 Bft) S-SW 202 0 min 0,000 mm 0,0 UV-I 0 W/m -5,6 C -3,0 C 0,0 km/h (0 Bft) 0,00 %
27.02.2015 05:30 -3,1 C 82 % 1011,8 hPa 0,0 l/m 0,0 km/h (0 Bft) S 181 0 min 0,000 mm 0,0 UV-I 0 W/m -5,7 C -3,1 C 0,0 km/h (0 Bft) 0,00 %
27.02.2015 05:45 -3,4 C 81 % 1011,9 hPa 0,0 l/m 0,0 km/h (0 Bft) S-SW 195 0 min 0,000 mm 0,0 UV-I 0 W/m -6,2 C -3,4 C 0,0 km/h (0 Bft) 0,00 %
27.02.2015 06:00 -3,8 C 82 % 1011,8 hPa 0,0 l/m 0,0 km/h (0 Bft) S 188 0 min 0,000 mm 0,0 UV-I 0 W/m -6,4 C -3,8 C 0,0 km/h (0 Bft) 0,00 %
27.02.2015 06:15 -3,8 C 82 % 1011,7 hPa 0,0 l/m 0,0 km/h (0 Bft) S-SW 202 0 min 0,000 mm 0,0 UV-I 0 W/m -6,4 C -3,8 C 0,0 km/h (0 Bft) 0,00 %
27.02.2015 06:30 -3,9 C 82 % 1011,8 hPa 0,0 l/m 0,0 km/h (0 Bft) S-SW 212 0 min 0,000 mm 0,0 UV-I 0 W/m -6,5 C -3,9 C 0,0 km/h (0 Bft) 0,00 %
27.02.2015 06:45 -4,0 C 82 % 1011,9 hPa 0,0 l/m 0,0 km/h (0 Bft) S-SW 202 0 min 0,000 mm 0,0 UV-I 0 W/m -6,6 C -4,0 C 0,0 km/h (0 Bft) 0,00 %
27.02.2015 07:00 -3,9 C 82 % 1011,9 hPa 0,0 l/m 0,0 km/h (0 Bft) S-SW 196 0 min 0,000 mm 0,0 UV-I 4 W/m -6,5 C -3,9 C 0,0 km/h (0 Bft) 0,00 %
27.02.2015 07:15 -3,7 C 82 % 1011,8 hPa 0,0 l/m 0,0 km/h (0 Bft) S 174 15 min 0,000 mm 0,0 UV-I 66 W/m -6,3 C -3,7 C 0,0 km/h (0 Bft) 0,00 %
27.02.2015 07:30 -3,2 C 81 % 1011,5 hPa 0,0 l/m 0,0 km/h (0 Bft) S 182 15 min 0,000 mm 0,0 UV-I 88 W/m -6,0 C -3,2 C 0,0 km/h (0 Bft) 0,00 %
27.02.2015 07:45 -2,0 C 85 % 1011,1 hPa 0,0 l/m 0,0 km/h (0 Bft) S 179 15 min 0,000 mm 1,0 UV-I 99 W/m -4,2 C -2,0 C 0,0 km/h (0 Bft) 0,00 %
27.02.2015 08:00 -1,5 C 85 % 1011,0 hPa 0,0 l/m 0,0 km/h (0 Bft) S 182 15 min 0,000 mm 1,0 UV-I 123 W/m -3,7 C -1,5 C 0,0 km/h (0 Bft) 0,00 %
27.02.2015 08:15 -0,7 C 85 % 1010,5 hPa 0,0 l/m 3,2 km/h (1 Bft) O 98 15 min 0,000 mm 1,0 UV-I 145 W/m -2,9 C -0,7 C 7,9 km/h (2 Bft) 0,00 %
27.02.2015 08:30 -0,4 C 82 % 1010,7 hPa 0,0 l/m 2,2 km/h (1 Bft) O 95 15 min 0,000 mm 1,0 UV-I 155 W/m -3,1 C -0,4 C 4,0 km/h (1 Bft) 0,00 %
27.02.2015 08:45 -0,4 C 82 % 1010,8 hPa 0,0 l/m 4,7 km/h (1 Bft) O-NO 78 15 min 0,000 mm 1,0 UV-I 190 W/m -3,1 C -0,4 C 7,9 km/h (2 Bft) 0,00 %
27.02.2015 09:00 -0,5 C 82 % 1010,9 hPa 0,0 l/m 7,2 km/h (2 Bft) SO 124 15 min 0,000 mm 1,0 UV-I 213 W/m -3,2 C -1,3 C 11,9 km/h (2 Bft) 0,00 %
27.02.2015 09:15 -0,5 C 82 % 1010,6 hPa 0,0 l/m 5,4 km/h (1 Bft) O 101 15 min 0,000 mm 1,0 UV-I 245 W/m -3,2 C -0,5 C 7,9 km/h (2 Bft) 0,00 %
27.02.2015 09:30 -0,4 C 83 % 1010,6 hPa 0,0 l/m 2,9 km/h (1 Bft) O-SO 111 0 min 0,000 mm 1,0 UV-I 113 W/m -2,9 C -0,4 C 4,0 km/h (1 Bft) 0,00 %
27.02.2015 09:45 -0,1 C 82 % 1010,6 hPa 0,0 l/m 7,2 km/h (2 Bft) SO 130 0 min 0,000 mm 1,0 UV-I 119 W/m -2,8 C -0,9 C 11,9 km/h (2 Bft) 0,00 %
27.02.2015 10:00 0,1 C 82 % 1010,5 hPa 0,0 l/m 5,8 km/h (2 Bft) O-SO 102 0 min 0,000 mm 1,0 UV-I 125 W/m -2,6 C 0,1 C 7,9 km/h (2 Bft) 0,00 %
27.02.2015 10:15 0,3 C 81 % 1009,7 hPa 0,0 l/m 4,3 km/h (1 Bft) O 91 0 min 0,000 mm 1,0 UV-I 126 W/m -2,6 C 0,3 C 7,9 km/h (2 Bft) 0,00 %
27.02.2015 10:30 0,5 C 79 % 1009,4 hPa 0,0 l/m 6,8 km/h (2 Bft) O 98 0 min 0,000 mm 2,0 UV-I 146 W/m -2,7 C 0,1 C 7,9 km/h (2 Bft) 0,00 %
27.02.2015 10:45 0,9 C 78 % 1009,3 hPa 0,0 l/m 0,4 km/h (0 Bft) S 179 0 min 0,000 mm 2,0 UV-I 184 W/m -2,5 C 0,9 C 4,0 km/h (1 Bft) 0,00 %
27.02.2015 11:00 1,3 C 76 % 1009,0 hPa 0,0 l/m 2,2 km/h (1 Bft) NO 46 0 min 0,000 mm 2,0 UV-I 201 W/m -2,5 C 1,3 C 4,0 km/h (1 Bft) 0,00 %
27.02.2015 11:15 1,7 C 74 % 1009,0 hPa 0,0 l/m 2,9 km/h (1 Bft) O-SO 115 0 min 0,000 mm 2,0 UV-I 196 W/m -2,4 C 1,7 C 4,0 km/h (1 Bft) 0,00 %
27.02.2015 11:30 2,3 C 77 % 1008,9 hPa 0,0 l/m 1,4 km/h (1 Bft) SO 138 0 min 0,000 mm 2,0 UV-I 215 W/m -1,3 C 2,3 C 4,0 km/h (1 Bft) 0,00 %
27.02.2015 11:45 2,7 C 75 % 1008,4 hPa 0,0 l/m 3,2 km/h (1 Bft) SO 133 0 min 0,000 mm 2,0 UV-I 256 W/m -1,3 C 2,7 C 7,9 km/h (2 Bft) 0,00 %
27.02.2015 12:00 3,1 C 75 % 1008,3 hPa 0,0 l/m 6,5 km/h (2 Bft) O-NO 77 0 min 0,000 mm 2,0 UV-I 220 W/m -0,9 C 3,0 C 7,9 km/h (2 Bft) 0,00 %
27.02.2015 12:15 3,3 C 74 % 1008,1 hPa 0,0 l/m 6,5 km/h (2 Bft) O 86 0 min 0,000 mm 2,0 UV-I 160 W/m -0,9 C 3,2 C 7,9 km/h (2 Bft) 0,00 %
27.02.2015 12:30 3,2 C 74 % 1008,2 hPa 0,0 l/m 4,3 km/h (1 Bft) O 98 0 min 0,000 mm 2,0 UV-I 155 W/m -1,0 C 3,2 C 7,9 km/h (2 Bft) 0,00 %
27.02.2015 12:45 4,1 C 70 % 1007,7 hPa 0,0 l/m 0,4 km/h (0 Bft) W-NW 303 0 min 0,000 mm 2,0 UV-I 189 W/m -0,9 C 4,1 C 4,0 km/h (1 Bft) 0,00 %
27.02.2015 13:00 4,3 C 69 % 1007,6 hPa 0,0 l/m 0,7 km/h (0 Bft) O 79 0 min 0,000 mm 2,0 UV-I 126 W/m -0,9 C 4,3 C 4,0 km/h (1 Bft) 0,00 %
27.02.2015 13:15 4,1 C 70 % 1007,8 hPa 0,0 l/m 5,4 km/h (1 Bft) O-SO 104 0 min 0,000 mm 2,0 UV-I 118 W/m -0,9 C 4,1 C 7,9 km/h (2 Bft) 0,00 %
27.02.2015 13:30 4,9 C 67 % 1007,6 hPa 0,0 l/m 0,4 km/h (0 Bft) S 176 0 min 0,000 mm 2,0 UV-I 126 W/m -0,7 C 4,9 C 4,0 km/h (1 Bft) 0,00 %
27.02.2015 13:45 5,0 C 66 % 1007,5 hPa 0,0 l/m 0,0 km/h (0 Bft) S 181 0 min 0,000 mm 2,0 UV-I 118 W/m -0,8 C 5,0 C 0,0 km/h (0 Bft) 0,00 %
27.02.2015 14:00 5,2 C 66 % 1007,5 hPa 0,0 l/m 2,2 km/h (1 Bft) O 101 0 min 0,000 mm 2,0 UV-I 117 W/m -0,6 C 5,2 C 4,0 km/h (1 Bft) 0,00 %
27.02.2015 14:15 5,4 C 64 % 1007,6 hPa 0,0 l/m 0,0 km/h (0 Bft) S-SW 199 0 min 0,000 mm 2,0 UV-I 120 W/m -0,9 C 5,4 C 0,0 km/h (0 Bft) 0,00 %
27.02.2015 14:30 5,6 C 64 % 1007,5 hPa 0,0 l/m 0,0 km/h (0 Bft) W-SW 237 0 min 0,000 mm 2,0 UV-I 119 W/m -0,7 C 5,6 C 0,0 km/h (0 Bft) 0,00 %
27.02.2015 14:45 5,8 C 64 % 1007,4 hPa 0,0 l/m 0,0 km/h (0 Bft) N 353 0 min 0,000 mm 2,0 UV-I 115 W/m -0,5 C 5,8 C 0,0 km/h (0 Bft) 0,00 %
27.02.2015 15:00 5,9 C 63 % 1007,6 hPa 0,0 l/m 0,0 km/h (0 Bft) SO 140 15 min 0,000 mm 1,0 UV-I 310 W/m -0,6 C 5,9 C 0,0 km/h (0 Bft) 0,00 %
27.02.2015 15:15 5,9 C 63 % 1007,8 hPa 0,0 l/m 0,4 km/h (0 Bft) S 173 15 min 0,000 mm 1,0 UV-I 305 W/m -0,6 C 5,9 C 4,0 km/h (1 Bft) 0,00 %
27.02.2015 15:30 5,9 C 63 % 1007,8 hPa 0,0 l/m 0,0 km/h (0 Bft) SO 132 15 min 0,000 mm 1,0 UV-I 290 W/m -0,6 C 5,9 C 0,0 km/h (0 Bft) 0,00 %
27.02.2015 15:45 6,1 C 62 % 1008,1 hPa 0,0 l/m 0,0 km/h (0 Bft) S-SW 194 15 min 0,000 mm 1,0 UV-I 290 W/m -0,6 C 6,1 C 0,0 km/h (0 Bft) 0,00 %
27.02.2015 16:00 6,1 C 61 % 1008,2 hPa 0,0 l/m 0,0 km/h (0 Bft) S 175 15 min 0,000 mm 1,0 UV-I 285 W/m -0,8 C 6,1 C 0,0 km/h (0 Bft) 0,00 %
27.02.2015 16:15 6,0 C 61 % 1008,2 hPa 0,0 l/m 0,0 km/h (0 Bft) SW 230 15 min 0,000 mm 1,0 UV-I 270 W/m -0,9 C 6,0 C 0,0 km/h (0 Bft) 0,00 %
27.02.2015 16:30 6,7 C 58 % 1008,4 hPa 0,0 l/m 0,0 km/h (0 Bft) SO 137 15 min 0,000 mm 1,0 UV-I 214 W/m -1,0 C 6,7 C 0,0 km/h (0 Bft) 0,00 %
27.02.2015 16:45 7,4 C 55 % 1008,6 hPa 0,0 l/m 0,0 km/h (0 Bft) S-SW 197 15 min 0,000 mm 1,0 UV-I 146 W/m -1,0 C 7,4 C 0,0 km/h (0 Bft) 0,00 %
27.02.2015 17:00 6,7 C 56 % 1009,3 hPa 0,0 l/m 0,0 km/h (0 Bft) S-SW 200 15 min 0,000 mm 0,0 UV-I 84 W/m -1,4 C 6,7 C 0,0 km/h (0 Bft) 0,00 %
27.02.2015 17:15 6,1 C 60 % 1009,9 hPa 0,0 l/m 0,0 km/h (0 Bft) SW 218 0 min 0,000 mm 0,0 UV-I 20 W/m -1,1 C 6,1 C 0,0 km/h (0 Bft) 0,00 %
27.02.2015 17:30 5,1 C 67 % 1010,3 hPa 0,0 l/m 0,0 km/h (0 Bft) S 188 0 min 0,000 mm 0,0 UV-I 0 W/m -0,5 C 5,1 C 0,0 km/h (0 Bft) 0,00 %
27.02.2015 17:45 4,5 C 71 % 1010,7 hPa 0,0 l/m 0,0 km/h (0 Bft) S 189 0 min 0,000 mm 0,0 UV-I 0 W/m -0,3 C 4,5 C 0,0 km/h (0 Bft) 0,00 %
27.02.2015 18:00 3,8 C 73 % 1011,2 hPa 0,0 l/m 0,0 km/h (0 Bft) S-SW 193 0 min 0,000 mm 0,0 UV-I 0 W/m -0,6 C 3,8 C 0,0 km/h (0 Bft) 0,00 %
27.02.2015 18:15 3,3 C 73 % 1011,8 hPa 0,0 l/m 0,0 km/h (0 Bft) S 184 0 min 0,000 mm 0,0 UV-I 0 W/m -1,1 C 3,3 C 0,0 km/h (0 Bft) 0,00 %
27.02.2015 18:30 3,3 C 74 % 1012,0 hPa 0,0 l/m 0,0 km/h (0 Bft) S 184 0 min 0,000 mm 0,0 UV-I 0 W/m -0,9 C 3,3 C 0,0 km/h (0 Bft) 0,00 %
27.02.2015 18:45 2,5 C 74 % 1012,4 hPa 0,0 l/m 0,0 km/h (0 Bft) S 187 0 min 0,000 mm 0,0 UV-I 0 W/m -1,7 C 2,5 C 0,0 km/h (0 Bft) 0,00 %
27.02.2015 19:00 2,6 C 77 % 1012,7 hPa 0,0 l/m 0,0 km/h (0 Bft) S-SW 203 0 min 0,000 mm 0,0 UV-I 0 W/m -1,0 C 2,6 C 0,0 km/h (0 Bft) 0,00 %
27.02.2015 19:15 2,7 C 77 % 1012,7 hPa 0,0 l/m 0,0 km/h (0 Bft) S 174 0 min 0,000 mm 0,0 UV-I 0 W/m -0,9 C 2,7 C 0,0 km/h (0 Bft) 0,00 %
27.02.2015 19:30 3,0 C 76 % 1013,0 hPa 0,0 l/m 0,0 km/h (0 Bft) S-SW 198 0 min 0,000 mm 0,0 UV-I 0 W/m -0,8 C 3,0 C 0,0 km/h (0 Bft) 0,00 %
27.02.2015 19:45 3,2 C 76 % 1013,3 hPa 0,0 l/m 0,0 km/h (0 Bft) S-SW 200 0 min 0,000 mm 0,0 UV-I 0 W/m -0,6 C 3,2 C 0,0 km/h (0 Bft) 0,00 %
27.02.2015 20:00 3,3 C 76 % 1013,4 hPa 0,0 l/m 0,0 km/h (0 Bft) O-SO 102 0 min 0,000 mm 0,0 UV-I 0 W/m -0,5 C 3,3 C 0,0 km/h (0 Bft) 0,00 %
27.02.2015 20:15 3,4 C 74 % 1013,8 hPa 0,0 l/m 0,0 km/h (0 Bft) S 182 0 min 0,000 mm 0,0 UV-I 0 W/m -0,8 C 3,4 C 0,0 km/h (0 Bft) 0,00 %
27.02.2015 20:30 3,5 C 74 % 1014,0 hPa 0,0 l/m 0,0 km/h (0 Bft) S-SW 197 0 min 0,000 mm 0,0 UV-I 0 W/m -0,7 C 3,5 C 0,0 km/h (0 Bft) 0,00 %
27.02.2015 20:45 3,4 C 75 % 1014,1 hPa 0,0 l/m 0,0 km/h (0 Bft) W-SW 251 0 min 0,000 mm 0,0 UV-I 0 W/m -0,6 C 3,4 C 0,0 km/h (0 Bft) 0,00 %
27.02.2015 21:00 3,3 C 75 % 1014,4 hPa 0,0 l/m 0,0 km/h (0 Bft) S-SW 210 0 min 0,000 mm 0,0 UV-I 0 W/m -0,7 C 3,3 C 0,0 km/h (0 Bft) 0,00 %
27.02.2015 21:15 3,1 C 76 % 1014,8 hPa 0,0 l/m 0,0 km/h (0 Bft) S 188 0 min 0,000 mm 0,0 UV-I 0 W/m -0,7 C 3,1 C 0,0 km/h (0 Bft) 0,00 %
27.02.2015 21:30 3,0 C 75 % 1015,0 hPa 0,0 l/m 0,0 km/h (0 Bft) S 179 0 min 0,000 mm 0,0 UV-I 0 W/m -1,0 C 3,0 C 0,0 km/h (0 Bft) 0,00 %
27.02.2015 21:45 3,5 C 72 % 1015,3 hPa 0,0 l/m 1,8 km/h (1 Bft) W-SW 256 0 min 0,000 mm 0,0 UV-I 0 W/m -1,1 C 3,5 C 4,0 km/h (1 Bft) 0,00 %
27.02.2015 22:00 3,4 C 71 % 1015,3 hPa 0,0 l/m 2,2 km/h (1 Bft) NW 312 0 min 0,000 mm 0,0 UV-I 0 W/m -1,3 C 3,4 C 7,9 km/h (2 Bft) 0,00 %
27.02.2015 22:15 3,4 C 69 % 1015,4 hPa 0,0 l/m 0,4 km/h (0 Bft) W-SW 254 0 min 0,000 mm 0,0 UV-I 0 W/m -1,7 C 3,4 C 4,0 km/h (1 Bft) 0,00 %
27.02.2015 22:30 3,3 C 70 % 1015,8 hPa 0,0 l/m 0,0 km/h (0 Bft) S 179 0 min 0,000 mm 0,0 UV-I 0 W/m -1,6 C 3,3 C 0,0 km/h (0 Bft) 0,00 %
27.02.2015 22:45 2,8 C 72 % 1016,3 hPa 0,0 l/m 0,7 km/h (0 Bft) W-SW 242 0 min 0,000 mm 0,0 UV-I 0 W/m -1,7 C 2,8 C 4,0 km/h (1 Bft) 0,00 %
27.02.2015 23:00 3,0 C 72 % 1016,2 hPa 0,0 l/m 0,0 km/h (0 Bft) W-SW 256 0 min 0,000 mm 0,0 UV-I 0 W/m -1,5 C 3,0 C 0,0 km/h (0 Bft) 0,00 %
27.02.2015 23:15 3,1 C 73 % 1016,4 hPa 0,0 l/m 4,0 km/h (1 Bft) W-SW 252 0 min 0,000 mm 0,0 UV-I 0 W/m -1,3 C 3,1 C 7,9 km/h (2 Bft) 0,00 %
27.02.2015 23:30 3,3 C 74 % 1016,4 hPa 0,0 l/m 4,0 km/h (1 Bft) W-SW 253 0 min 0,000 mm 0,0 UV-I 0 W/m -0,9 C 3,3 C 7,9 km/h (2 Bft) 0,00 %
27.02.2015 23:45 3,3 C 74 % 1016,4 hPa 0,0 l/m 3,2 km/h (1 Bft) W-SW 253 0 min 0,000 mm 0,0 UV-I 0 W/m -0,9 C 3,3 C 4,0 km/h (1 Bft) 0,00 %
_ Min-Zeit 06:45 16:45 14:45 - 00:00 - - - - - - 06:45 06:45 00:00 00:00
Minimum _ -4,0 C 55 % 1007,4 hPa - 0,0 km/h (0 Bft) - - - - - - -6,6 C -4,0 C 0,0 km/h (0 Bft) 0,00 %
_ Max-Zeit 16:45 07:45 23:15 00:00 09:00 - - 07:15 00:00 10:30 15:00 17:45 16:45 09:00 00:00
Maximum _ 7,4 C 85 % 1016,4 hPa 0,0 l/m 7,2 km/h
SO (2 Bft)
- - 15 min 0,000 mm 2,0 UV-I 310 W/m -0,3 C 7,4 C 11,9 km/h
SO (2 Bft)
0,00 %
Durchschnitt _ 1,2 C 75 % 1011,6 hPa #0,0 l/m 1,1 km/h (1 Bft) O - #4:30 h #0,000 mm 1,5 UV-I 164 W/m -2,8 C 1,2 C 2,0 km/h (1 Bft) 0,00 %